Weather History for Enid, OK

Change the Weather History Date:

Thursday, August 7, 2014

  Actual Average Record
Temperature  
Mean Temperature 84 °F -  
Max Temperature 98 °F 90 °F 107 °F (2012)
Min Temperature 71 °F 69 °F 60 °F (1997)
Cooling Degree Days 20    
Growing Degree Days 34 (Base 50)    
Moisture  
Dew Point 70 °F    
Average Humidity 72    
Maximum Humidity 94    
Minimum Humidity 35    
Precipitation  
Precipitation 0.01 in - - ()
Sea Level Pressure  
Sea Level Pressure 29.87 in    
Wind  
Wind Speed 8 mph (SE)    
Max Wind Speed 17 mph    
Max Gust Speed 23 mph    
Visibility 10 miles    
Events Rain    
Averages and records for this station are not official NWS values.
T = Trace of Precipitation, MM = Missing Value Source: NWS Daily Summary

Daily Weather History Graph

Daily Weather History Graph

Search for Another Location

Airport:

Trip Planner

Search our weather history database for the weather conditions in past years. The results will help you decide how hot, cold, wet, or windy it might be!

Date:

Astronomy

Aug. 07, 2014 Rise Set
Actual Time 6:42 AM CDT 8:30 PM CDT
Civil Twilight 6:14 AM CDT 8:58 PM CDT
Nautical Twilight 5:40 AM CDT 9:32 PM CDT
Astronomical Twilight 5:04 AM CDT 10:08 PM CDT
Moon 5:47 PM CDT (8/7) 3:15 AM CDT (8/7)
Length of Visible Light 14h 44m
Length of Day
13h 48m
Waxing Gibbous, 87% of the Moon is Illuminated
Aug 7
Waxing Gibbous
Aug 10
Full
Aug 17
Last Quarter
Aug 25
New
Sep 2
First Quarter

Hourly Weather History & Observations

Time (CDT) Temp. Heat Index Dew Point Humidity Pressure Visibility Wind Dir Wind Speed Gust Speed Precip Events Conditions
12:15 AM 75.2 °F - 71.6 °F 89% 29.86 in 10.0 mi South 5.8 mph - N/A   Clear
12:35 AM 75.2 °F - 69.8 °F 83% 29.86 in 10.0 mi South 5.8 mph - N/A   Clear
12:55 AM 73.4 °F - 69.8 °F 88% 29.86 in 10.0 mi South 5.8 mph - N/A   Clear
1:15 AM 73.4 °F - 69.8 °F 88% 29.86 in 10.0 mi South 3.5 mph - N/A   Clear
1:35 AM 73.4 °F - 69.8 °F 88% 29.86 in 10.0 mi SSE 6.9 mph - N/A   Clear
1:55 AM 71.6 °F - 69.8 °F 94% 29.85 in 10.0 mi SSE 5.8 mph - N/A   Clear
2:15 AM 71.6 °F - 69.8 °F 94% 29.86 in 10.0 mi South 4.6 mph - N/A   Clear
2:35 AM 71.6 °F - 69.8 °F 94% 29.86 in 10.0 mi SSW 3.5 mph - N/A   Clear
2:55 AM 71.6 °F - 69.8 °F 94% 29.87 in 10.0 mi West 8.1 mph - N/A   Clear
3:15 AM 73.4 °F - 68.0 °F 83% 29.86 in 10.0 mi South 5.8 mph - N/A   Clear
3:35 AM 73.4 °F - 68.0 °F 83% 29.86 in 10.0 mi West 6.9 mph - N/A   Clear
3:55 AM 73.4 °F - 68.0 °F 83% 29.85 in 10.0 mi SSW 8.1 mph - N/A   Clear
4:15 AM 75.2 °F - 68.0 °F 78% 29.86 in 10.0 mi East 11.5 mph - N/A   Clear
4:35 AM 77.0 °F - 68.0 °F 74% 29.88 in 10.0 mi ENE 10.4 mph - N/A   Clear
4:55 AM 77.0 °F - 68.0 °F 74% 29.89 in 10.0 mi ESE 6.9 mph - N/A   Scattered Clouds
5:15 AM 77.0 °F - 68.0 °F 74% 29.89 in 10.0 mi East 10.4 mph - N/A   Clear
5:35 AM 75.2 °F - 68.0 °F 78% 29.90 in 10.0 mi East 6.9 mph - N/A Rain Rain
5:55 AM 73.4 °F - 69.8 °F 88% 29.88 in 10.0 mi ESE 15.0 mph - 0.01 in Rain Light Rain
6:15 AM 73.4 °F - 69.8 °F 88% 29.89 in 10.0 mi East 13.8 mph - N/A   Mostly Cloudy
6:50 AM 73.4 °F - 69.8 °F 88% 29.91 in 10.0 mi East 11.5 mph - N/A   Scattered Clouds
7:50 AM 75.2 °F - 71.6 °F 89% 29.92 in 10.0 mi East 13.8 mph - N/A   Scattered Clouds
8:50 AM 78.8 °F - 71.6 °F 78% 29.92 in 10.0 mi ESE 13.8 mph - N/A   Scattered Clouds
9:50 AM 82.4 °F 87.2 °F 71.6 °F 70% - 10.0 mi SE 13.8 mph - N/A   Scattered Clouds
10:50 AM 86.0 °F 91.8 °F 71.6 °F 62% - 10.0 mi SSE 17.3 mph 23.0 mph N/A   Mostly Cloudy
11:50 AM 87.8 °F 92.6 °F 69.8 °F 55% 29.89 in 10.0 mi South 15.0 mph 21.9 mph N/A   Mostly Cloudy
12:50 PM 93.2 °F 98.8 °F 69.8 °F 46% 29.88 in 10.0 mi SE 6.9 mph - N/A   Scattered Clouds
1:50 PM 95.0 °F 99.5 °F 68.0 °F 41% 29.88 in 10.0 mi SSE 8.1 mph - N/A   Scattered Clouds
2:50 PM 96.8 °F 100.7 °F 66.2 °F 37% 29.87 in 10.0 mi ESE 4.6 mph - N/A   Scattered Clouds
3:50 PM 96.8 °F 100.7 °F 66.2 °F 37% 29.85 in 10.0 mi SE 5.8 mph - N/A   Scattered Clouds
4:50 PM 98.6 °F 102.8 °F 66.2 °F 35% 29.84 in 10.0 mi Calm Calm - N/A   Scattered Clouds
5:50 PM 96.8 °F 100.7 °F 66.2 °F 37% 29.82 in 10.0 mi East 5.8 mph - N/A   Partly Cloudy
6:50 PM 95.0 °F 99.5 °F 68.0 °F 41% 29.81 in 10.0 mi ESE 5.8 mph - N/A   Partly Cloudy
7:50 PM 91.4 °F 96.8 °F 69.8 °F 49% 29.81 in 10.0 mi ESE 6.9 mph - N/A   Scattered Clouds
8:50 PM 84.2 °F 88.4 °F 69.8 °F 62% 29.82 in 10.0 mi ESE 6.9 mph - N/A   Scattered Clouds
9:15 PM 80.6 °F 83.9 °F 69.8 °F 70% 29.84 in 10.0 mi ESE 5.8 mph - N/A   Clear
9:35 PM 80.6 °F 83.9 °F 69.8 °F 70% 29.86 in 10.0 mi ESE 9.2 mph - N/A   Clear
9:55 PM 80.6 °F 83.9 °F 69.8 °F 70% 29.86 in 10.0 mi East 8.1 mph - N/A   Clear
10:15 PM 80.6 °F 84.6 °F 71.6 °F 74% 29.87 in 10.0 mi East 6.9 mph - N/A   Clear
10:35 PM 80.6 °F 84.6 °F 71.6 °F 74% 29.89 in 10.0 mi East 8.1 mph - N/A   Clear
10:55 PM 80.6 °F 84.6 °F 71.6 °F 74% 29.88 in 10.0 mi East 9.2 mph - N/A   Clear
11:15 PM 78.8 °F - 71.6 °F 78% 29.88 in 10.0 mi East 10.4 mph - N/A   Clear
11:35 PM 78.8 °F - 71.6 °F 78% 29.87 in 10.0 mi East 10.4 mph - N/A   Clear
11:55 PM 78.8 °F - 71.6 °F 78% 29.88 in 10.0 mi East 10.4 mph - N/A   Clear